Temperature
17 17 17 17 17 16 16 16 14 14 13 13 12 11 12 13 13 12 12 11 10 10 9 9 8 7 7 7 7 7 7 7 8 8 9 9 9 10 10 11 11 11 10 10
17 17 17 16 17 16 16 15 14 13 13 12 13 13 12 12 12 11 11 10 9 9 8 7 6 6 5 5 5 5 5 5 6 6 6 7 8 8 9 10 10 10 10 10
15 17 16 16 16 16 15 14 14 12 12 11 10 10 11 12 11 11 10 9 8 7 7 6 5 5 5 4 4 4 4 5 5 5 5 5 6 6 7 8 9 9 9 9
14 16 17 15 16 16 15 13 13 12 11 11 11 12 12 12 10 9 9 8 7 7 6 5 5 4 4 4 4 4 4 4 4 4 4 4 4 5 5 6 7 8 8 9
13 16 16 16 16 15 14 12 12 12 11 12 12 10 10 11 9 9 8 7 7 6 5 5 5 4 4 4 4 4 4 4 4 4 3 3 4 4 4 5 6 6 7 7
13 16 16 16 16 16 14 12 13 12 11 11 10 7 8 10 9 8 8 7 6 6 5 5 5 4 4 4 4 4 4 4 4 3 3 3 3 3 3 4 4 5 6 7
14 15 14 15 15 15 14 13 14 13 13 12 9 9 10 9 8 8 7 7 6 6 6 5 5 4 4 4 4 4 4 4 4 4 3 3 3 3 3 3 4 4 5 6
12 15 15 15 14 13 13 15 14 13 13 12 11 10 9 8 8 7 7 7 6 6 6 6 5 5 4 4 4 4 4 4 4 4 3 3 3 3 3 3 3 4 4 5
13 14 15 16 15 16 15 14 14 13 12 11 10 9 8 8 7 7 7 7 6 6 6 6 6 5 5 5 5 4 4 4 4 4 4 3 3 3 3 3 3 3 4 4
12 13 14 15 15 15 15 14 13 13 12 11 9 9 8 7 7 7 7 7 6 6 6 6 6 6 5 5 5 5 4 4 4 4 4 4 3 3 3 3 3 3 4 4
13 13 14 15 15 15 14 14 13 12 11 10 9 8 8 7 7 7 7 7 7 6 6 6 6 6 6 5 5 5 5 4 4 4 4 4 4 3 3 4 3 4 4 4
14 16 14 16 17 15 14 14 13 12 11 10 9 8 8 7 7 7 7 7 7 7 7 6 6 6 6 6 6 5 5 5 4 4 4 4 4 4 4 4 4 4 4 4
19 19 18 17 16 15 14 14 13 12 11 10 9 8 7 7 7 7 7 8 7 7 7 6 6 6 6 6 6 5 5 5 5 4 4 4 4 4 4 4 4 4 4 4
19 18 17 16 16 15 14 13 12 12 10 9 9 8 7 7 7 7 7 8 8 7 7 7 6 6 6 6 6 6 6 5 5 5 4 4 4 4 4 4 4 4 5 5
19 18 18 17 16 15 14 13 12 11 10 9 9 8 7 7 7 7 7 8 8 8 8 7 7 7 7 6 6 6 6 6 6 5 5 5 5 4 4 5 5 5 5 5
19 17 17 16 15 15 14 13 12 11 10 9 9 8 7 7 7 7 7 8 8 7 7 7 7 7 7 7 7 7 6 6 6 6 5 5 5 5 5 5 5 5 5 5
18 17 17 16 16 15 14 13 12 11 10 9 8 8 7 7 7 8 8 8 8 7 7 7 7 8 7 7 7 7 7 6 6 6 6 6 6 5 5 5 5 5 5 5
20 19 18 17 16 15 14 13 12 11 10 9 8 8 7 7 7 7 7 8 8 9 8 8 8 8 8 8 7 7 7 7 6 7 7 6 6 6 6 5 5 5 5 6
19 18 17 16 16 15 14 13 12 11 10 9 9 8 7 7 6 6 7 7 7 8 8 8 8 8 8 8 7 7 7 7 7 7 7 7 7 6 6 6 6 5 5 6
18 18 17 16 15 14 14 13 12 11 10 9 9 8 8 7 7 7 6 6 5 5 6 7 7 8 8 8 7 7 7 7 7 7 7 7 7 6 6 6 6 6 5 6
18 18 17 16 15 14 14 13 12 11 10 9 9 8 8 7 7 7 6 6 6 6 6 7 7 7 7 7 7 7 7 7 7 7 7 7 7 6 6 6 6 6 6 6
18 17 17 16 15 14 13 13 12 11 10 9 9 8 8 7 7 7 6 5 5 6 6 6 6 6 7 7 7 7 7 7 7 7 7 7 7 6 6 6 6 6 6 6
18 17 16 16 15 14 13 13 12 11 10 9 8 8 7 7 6 6 6 5 5 5 5 5 5 6 7 7 7 7 7 7 7 7 7 7 7 7 7 7 7 7 7 7
17 17 16 15 14 13 13 13 12 11 10 9 8 8 7 7 7 6 5 5 5 5 5 5 5 5 6 6 7 7 8 8 8 8 7 7 7 7 7 7 7 7 7 8
17 16 16 15 14 14 14 13 12 11 10 9 8 7 7 7 6 6 5 5 5 5 4 4 5 5 5 6 6 7 7 8 8 8 8 8 8 8 8 8 8 8 8 8
17 16 16 15 15 14 13 13 12 11 10 9 8 7 7 6 6 6 5 5 5 5 4 4 4 5 5 5 6 7 7 8 8 9 9 8 8 8 8 8 8 9 9 9
16 16 15 15 15 14 13 13 12 11 10 9 8 7 6 6 6 5 5 5 5 4 4 4 4 4 4 5 5 6 7 8 8 9 9 9 9 9 9 9 9 9 9 9
Wind_Speed
2 2 5 4 3 4 4 3 4 7 6 6 7 9 10 10 11 12 12 12 11 11 10 10 10 10 10 11 11 12 13 14 14 14 14 14 14 14 13 13 14 13 12 11
2 4 6 4 3 2 1 1 3 4 6 7 8 8 9 12 12 11 12 12 12 12 11 11 11 11 11 11 11 11 13 14 14 14 14 14 14 14 13 13 12 12 12 12
3 4 3 3 3 2 3 4 5 6 7 9 10 10 10 11 11 11 13 13 13 13 12 13 13 13 12 12 12 12 13 15 14 14 14 14 15 13 13 12 11 11 12 11
2 2 4 6 2 3 4 6 7 8 9 10 12 10 11 10 9 11 12 12 12 13 13 13 13 12 12 13 13 14 15 15 14 14 15 14 13 13 13 10 9 9 10 11
3 1 5 2 3 3 4 7 7 7 9 9 9 8 7 7 6 9 11 12 13 14 15 13 13 13 14 14 15 15 16 15 15 15 15 15 14 13 11 9 9 8 8 10
4 2 5 6 3 1 3 6 7 6 9 8 7 7 7 7 9 11 12 12 13 13 13 13 13 13 14 16 16 16 17 17 16 15 15 15 13 12 10 8 9 8 9 9
3 4 7 6 2 3 2 7 4 5 7 8 5 7 9 11 11 11 12 14 14 14 13 13 13 13 15 16 17 17 17 17 16 14 14 13 12 10 9 9 8 8 9 8
4 2 7 5 6 6 9 4 4 6 7 8 8 9 9 10 11 12 12 13 13 13 14 13 12 12 16 16 17 17 17 16 15 14 12 11 9 9 8 8 8 7 6 7
8 7 6 6 9 7 6 5 5 6 7 6 7 8 9 9 10 12 12 12 13 13 15 14 12 12 16 17 17 17 16 15 14 13 11 10 9 9 8 6 6 6 6 7
4 8 7 7 6 4 7 7 6 7 7 5 7 9 10 10 10 12 11 13 13 14 15 15 14 14 14 16 16 16 16 14 12 12 11 9 7 6 6 6 6 6 7 7
5 6 4 8 9 8 7 7 7 6 5 6 8 9 9 9 11 11 12 11 12 13 15 16 15 16 15 14 15 16 14 12 11 10 10 8 7 6 6 6 6 6 6 6
9 9 8 8 9 9 9 9 9 7 6 6 6 8 8 9 10 11 13 13 13 14 15 16 16 16 14 13 14 15 13 11 9 8 8 7 7 7 6 5 6 8 8 6
8 6 8 5 5 8 8 9 8 7 7 6 6 6 7 8 9 11 12 13 13 15 16 16 16 15 14 13 13 14 13 11 8 7 7 7 7 6 6 4 3 1 2 4
6 7 5 6 7 9 8 7 5 5 5 6 5 7 8 8 10 12 13 13 13 15 15 14 15 15 15 14 13 13 12 11 9 6 6 5 5 5 4 4 3 2 4 3
10 9 8 6 7 7 6 4 4 5 6 6 5 7 8 10 11 13 13 13 13 14 14 15 16 16 16 15 14 12 10 8 7 5 5 5 4 4 3 3 2 1 2 3
10 7 6 7 9 8 7 7 7 7 6 6 6 8 9 10 11 12 12 11 13 15 15 15 16 17 17 15 14 10 8 11 9 5 5 5 4 3 3 2 1 1 1 2
11 10 9 8 9 9 9 9 8 7 6 7 7 8 9 10 11 12 12 12 12 12 12 14 17 18 17 15 13 9 7 7 9 6 4 4 4 3 3 2 1 0 1 2
13 13 11 9 8 10 10 9 8 7 6 6 6 6 8 9 11 13 14 15 14 12 11 15 18 19 17 16 13 9 6 5 4 4 4 4 4 3 3 2 1 0 1 2
9 10 10 10 9 9 8 8 7 7 6 4 4 6 7 8 9 11 12 12 13 16 18 19 22 18 17 18 17 9 7 5 4 3 3 4 3 3 2 2 1 0 2 3
9 9 10 9 9 8 8 7 7 6 5 3 3 5 7 8 9 10 10 8 7 10 15 17 17 15 16 17 18 9 8 6 4 3 3 3 3 3 3 2 1 1 1 2
11 10 10 10 9 8 8 7 6 6 5 3 3 5 7 8 8 9 9 9 10 12 15 15 13 14 15 16 15 10 9 7 5 3 3 3 3 3 4 4 3 2 2 2
10 10 11 10 9 8 6 6 6 5 4 3 3 4 5 7 7 8 7 7 11 15 13 11 12 16 20 16 10 11 10 9 7 5 4 3 2 2 3 3 3 3 3 3
9 10 10 10 9 7 5 5 6 6 5 4 3 4 4 5 5 6 8 8 10 15 13 11 17 22 20 12 10 10 10 10 9 7 5 3 2 1 1 2 3 3 3 3
8 9 9 7 6 6 7 7 6 5 4 3 3 3 3 4 4 4 6 10 13 14 11 12 17 19 15 10 10 10 10 10 9 8 7 5 3 2 1 1 2 2 2 3
10 10 9 10 10 9 9 7 7 6 5 3 3 3 3 2 3 5 7 9 12 12 11 12 15 16 12 10 10 10 9 9 9 9 8 7 5 3 2 1 1 1 1 2
11 11 11 12 10 8 7 8 7 6 5 4 3 2 2 3 4 5 6 9 11 12 10 10 11 12 11 11 11 11 10 10 10 9 9 8 7 5 3 2 0 0 0 0
8 8 7 7 7 8 9 10 10 9 8 6 4 2 2 2 3 5 6 7 8 9 9 10 10 10 10 11 11 10 10 10 10 9 9 8 7 6 5 4 2 1 1 1
Wind_Direction
59 74 105 97 72 65 94 169 214 264 264 258 281 288 289 291 295 302 301 299 298 297 296 295 298 299 299 299 301 303 303 301 297 294 289 282 275 266 255 243 236 227 222 221
68 72 94 84 38 40 84 250 249 280 274 257 285 296 291 290 294 298 301 306 307 305 304 305 306 306 305 302 301 300 299 298 297 295 293 289 284 277 267 254 240 226 218 216
196 219 334 276 222 219 226 225 214 237 256 287 298 294 285 290 301 303 307 308 307 307 308 310 310 308 305 301 302 301 299 298 297 296 294 291 290 286 275 261 245 230 224 213
121 85 255 254 233 203 212 224 215 233 259 276 273 278 280 284 291 294 298 301 306 309 310 308 304 304 304 306 307 306 303 300 298 297 296 294 289 284 277 268 254 238 230 222
103 262 288 247 210 177 210 254 221 241 267 277 292 315 296 281 289 289 298 305 308 307 308 307 308 310 313 314 312 309 306 302 300 297 294 292 289 284 279 269 259 247 237 228
115 187 253 242 210 203 164 279 229 236 272 287 318 326 291 299 313 307 306 306 306 305 306 310 313 316 318 317 314 310 307 303 298 293 291 288 284 282 277 268 257 251 244 232
153 227 263 239 188 98 189 262 236 239 265 279 264 246 276 302 303 298 299 303 306 309 313 314 316 321 320 317 314 311 307 304 300 294 291 286 281 278 273 265 254 243 243 238
164 215 268 200 149 187 222 238 248 257 264 269 267 275 287 295 297 304 307 309 312 313 315 316 318 320 320 316 314 312 310 308 305 300 296 293 283 279 272 264 250 235 239 243
190 213 242 203 201 211 184 210 240 249 264 274 279 285 291 291 296 302 306 310 314 315 316 317 318 318 318 316 316 315 315 314 312 309 303 294 286 280 273 258 248 232 226 236
236 258 241 231 228 217 196 213 240 254 270 270 271 279 287 293 299 307 308 314 316 317 318 319 321 319 315 316 317 317 319 320 319 319 315 308 296 281 270 257 248 230 224 230
243 267 258 251 229 218 215 228 252 264 259 257 264 277 283 295 303 308 313 314 316 317 317 317 319 319 319 320 322 322 322 323 322 323 323 318 311 296 281 262 248 233 224 221
220 216 195 232 222 200 206 227 238 247 257 258 258 274 290 299 301 305 311 315 319 319 319 318 318 318 320 323 325 325 325 326 325 325 326 326 323 321 302 281 268 240 233 226
207 193 186 226 199 188 201 223 232 236 247 266 276 280 291 297 299 306 311 318 322 321 317 315 316 318 322 325 325 323 323 322 320 323 326 329 331 332 335 341 21 62 215 219
182 141 170 201 201 201 205 218 227 250 262 265 272 287 295 295 303 313 317 319 319 318 317 318 320 323 326 325 322 320 319 319 321 315 318 322 326 328 328 335 356 38 50 59
192 185 191 196 193 193 199 211 235 264 272 278 275 287 299 307 313 315 315 317 320 322 324 326 327 326 327 325 321 317 315 314 312 311 313 313 319 326 331 336 358 40 73 59
185 186 182 179 191 201 206 222 238 257 265 270 281 292 301 304 306 308 311 317 326 326 326 328 328 326 324 323 323 317 310 314 322 317 320 322 326 330 333 338 360 57 94 116
157 187 197 204 209 211 215 220 226 242 255 265 275 294 308 316 320 323 326 328 323 318 320 328 329 328 328 327 325 319 308 310 322 326 325 319 317 317 318 322 335 74 93 146
186 187 180 183 193 206 218 226 231 238 246 253 280 303 314 319 322 323 325 328 329 331 337 339 335 333 331 332 331 322 312 303 312 320 326 328 321 316 314 313 317 135 121 139
184 179 182 189 188 187 201 217 227 233 241 252 283 301 304 305 308 314 321 327 336 341 342 338 334 336 334 335 337 328 328 320 316 324 330 338 347 349 341 335 334 126 143 150
184 177 178 184 182 183 198 212 218 224 229 236 280 303 312 314 315 320 322 320 324 331 330 329 333 337 337 336 338 335 339 338 332 329 339 354 2 4 4 9 16 38 120 145
185 176 177 183 191 198 202 202 201 213 219 226 270 295 304 310 318 326 329 332 336 337 335 330 338 342 340 337 335 344 350 353 350 343 341 350 6 17 21 25 34 58 91 108
184 180 184 186 191 204 205 196 195 198 201 233 273 295 308 315 323 326 317 317 327 333 338 337 343 342 342 339 346 351 354 358 358 354 348 349 3 18 30 40 47 57 77 89
182 181 183 188 194 201 193 193 193 186 196 225 260 286 298 304 311 324 332 330 333 334 337 338 338 339 341 347 352 355 358 0 360 357 353 353 359 18 33 48 55 61 75 79
180 182 186 180 164 179 202 206 191 181 184 205 243 271 287 306 312 304 313 320 332 335 339 335 336 341 346 356 357 359 1 1 357 353 352 352 354 5 24 45 57 61 73 77
182 183 177 174 189 210 210 187 172 174 175 202 247 281 293 288 296 315 326 334 339 341 343 340 341 345 355 359 1 3 3 2 359 353 353 352 351 354 0 16 64 69 70 75
182 190 199 201 200 199 187 178 182 183 179 197 231 267 301 316 321 330 339 344 346 345 348 349 350 353 358 359 1 4 5 2 2 2 357 354 353 355 351 343 313 186 188 103
198 194 198 204 200 190 185 184 185 186 184 186 201 222 284 317 333 349 356 357 356 353 351 352 354 356 358 359 0 3 6 6 4 1 357 355 353 348 342 330 311 279 223 211
Height
1524 1521 1521 1525 1526 1526 1528 1530 1536 1532 1528 1525 1522 1519 1514 1510 1507 1503 1499 1495 1491 1486 1480 1475 1469 1463 1458 1452 1447 1442 1436 1431 1427 1423 1419 1416 1413 1411 1411 1411 1412 1414 1416 1417
1527 1525 1525 1528 1527 1526 1527 1527 1528 1528 1527 1520 1518 1515 1511 1507 1503 1499 1495 1490 1485 1479 1474 1468 1462 1456 1450 1444 1438 1433 1427 1422 1417 1413 1409 1405 1403 1401 1400 1400 1401 1403 1405 1408
1535 1528 1529 1534 1528 1527 1527 1526 1527 1530 1525 1518 1515 1512 1508 1503 1499 1496 1491 1486 1480 1473 1467 1461 1455 1449 1442 1436 1430 1425 1419 1413 1408 1404 1399 1395 1393 1390 1389 1389 1390 1392 1396 1399
1536 1533 1537 1532 1522 1522 1524 1524 1522 1522 1519 1516 1512 1508 1504 1501 1498 1493 1487 1481 1474 1467 1461 1455 1449 1443 1436 1430 1424 1418 1412 1406 1400 1395 1391 1387 1383 1381 1380 1380 1381 1383 1386 1390
1539 1537 1533 1527 1521 1521 1524 1524 1519 1519 1516 1512 1508 1504 1500 1498 1494 1489 1483 1477 1470 1463 1456 1450 1443 1437 1430 1424 1418 1412 1405 1399 1394 1388 1383 1379 1375 1372 1371 1371 1372 1374 1377 1381
1538 1535 1537 1526 1518 1517 1521 1523 1516 1514 1512 1509 1507 1506 1498 1494 1490 1484 1478 1472 1465 1458 1451 1444 1438 1432 1425 1418 1412 1405 1399 1393 1387 1381 1376 1371 1368 1365 1363 1363 1364 1366 1369 1373
1536 1536 1529 1517 1515 1517 1526 1521 1512 1511 1509 1506 1504 1502 1496 1491 1486 1480 1473 1467 1460 1453 1446 1440 1433 1427 1420 1414 1407 1401 1394 1387 1381 1375 1370 1365 1362 1359 1357 1356 1357 1359 1362 1366
1538 1535 1529 1512 1513 1517 1514 1508 1508 1507 1505 1502 1499 1496 1492 1487 1481 1474 1468 1461 1455 1448 1441 1435 1429 1423 1416 1410 1404 1396 1389 1382 1376 1370 1365 1360 1357 1354 1353 1351 1352 1354 1356 1360
1523 1520 1509 1506 1506 1506 1506 1506 1505 1503 1501 1498 1495 1491 1487 1482 1476 1470 1463 1457 1451 1444 1437 1431 1425 1420 1413 1406 1399 1392 1385 1378 1372 1366 1361 1356 1353 1350 1348 1347 1348 1349 1351 1354
1514 1508 1504 1503 1503 1503 1503 1503 1502 1500 1497 1495 1492 1488 1483 1478 1472 1465 1459 1453 1447 1440 1434 1427 1421 1416 1410 1403 1396 1389 1382 1375 1369 1363 1358 1354 1350 1347 1345 1344 1344 1345 1347 1350
1509 1504 1502 1500 1499 1500 1500 1499 1498 1497 1494 1492 1488 1484 1480 1474 1468 1462 1456 1449 1443 1437 1430 1424 1418 1412 1406 1400 1394 1387 1380 1374 1367 1362 1357 1353 1349 1346 1344 1342 1341 1342 1343 1346
1503 1496 1496 1494 1494 1496 1496 1496 1495 1493 1491 1488 1485 1481 1476 1470 1464 1458 1452 1446 1440 1434 1428 1421 1414 1408 1403 1397 1391 1385 1378 1372 1366 1361 1356 1352 1349 1346 1343 1341 1340 1340 1341 1343
1490 1490 1491 1491 1491 1492 1493 1493 1492 1490 1488 1485 1482 1478 1473 1467 1461 1455 1449 1443 1437 1431 1425 1418 1411 1405 1400 1394 1389 1383 1378 1372 1366 1361 1357 1353 1349 1346 1344 1343 1341 1341 1341 1342
1486 1487 1488 1488 1488 1489 1490 1490 1489 1487 1484 1482 1478 1474 1469 1464 1457 1452 1446 1440 1434 1428 1422 1416 1409 1403 1396 1391 1386 1381 1376 1371 1366 1362 1357 1354 1350 1348 1346 1344 1342 1342 1342 1343
1481 1483 1484 1485 1485 1486 1487 1487 1485 1483 1481 1478 1475 1471 1466 1460 1454 1449 1443 1437 1432 1426 1420 1413 1407 1400 1394 1388 1383 1378 1374 1370 1366 1362 1358 1355 1352 1349 1347 1346 1344 1344 1344 1344
1476 1479 1480 1481 1482 1483 1483 1483 1482 1480 1477 1474 1471 1467 1462 1457 1451 1446 1440 1435 1429 1423 1417 1411 1405 1398 1392 1386 1380 1376 1372 1369 1366 1362 1359 1356 1353 1350 1348 1347 1346 1345 1345 1345
1471 1474 1475 1477 1478 1479 1479 1479 1478 1476 1473 1471 1467 1463 1458 1453 1448 1442 1437 1432 1426 1421 1416 1410 1403 1397 1391 1384 1379 1374 1370 1368 1365 1362 1360 1357 1354 1352 1350 1348 1347 1347 1346 1347
1466 1469 1472 1473 1474 1475 1475 1475 1474 1472 1470 1468 1464 1460 1455 1450 1445 1439 1434 1429 1424 1419 1414 1408 1402 1395 1389 1383 1378 1373 1369 1366 1364 1362 1360 1358 1355 1353 1351 1349 1348 1347 1347 1348
1463 1466 1468 1470 1471 1471 1472 1471 1470 1469 1467 1465 1462 1458 1453 1448 1443 1438 1433 1427 1422 1416 1410 1406 1400 1394 1388 1383 1378 1373 1369 1366 1364 1362 1361 1359 1356 1354 1352 1350 1349 1348 1348 1349
1460 1463 1465 1466 1467 1468 1468 1467 1466 1465 1464 1462 1459 1455 1450 1446 1441 1436 1431 1426 1422 1416 1410 1405 1399 1393 1388 1383 1378 1373 1369 1366 1364 1362 1361 1359 1358 1356 1354 1352 1350 1349 1349 1349
1457 1459 1461 1463 1464 1464 1464 1464 1463 1463 1461 1459 1456 1452 1448 1443 1439 1434 1429 1424 1420 1415 1409 1404 1398 1393 1388 1383 1378 1374 1370 1367 1364 1362 1361 1360 1359 1358 1356 1354 1353 1352 1351 1352
1453 1455 1457 1459 1461 1461 1461 1461 1461 1460 1459 1457 1454 1450 1446 1441 1437 1432 1428 1423 1418 1413 1408 1403 1398 1393 1389 1384 1379 1375 1371 1368 1366 1363 1362 1361 1360 1360 1359 1358 1357 1356 1356 1356
1449 1452 1454 1456 1458 1459 1459 1459 1458 1458 1457 1455 1452 1448 1444 1440 1435 1430 1426 1422 1417 1413 1408 1403 1399 1394 1389 1385 1380 1376 1373 1370 1367 1365 1364 1362 1362 1362 1361 1361 1361 1361 1361 1361
1446 1449 1451 1453 1454 1455 1455 1455 1455 1454 1454 1452 1450 1446 1443 1438 1434 1430 1425 1421 1417 1413 1408 1404 1399 1394 1390 1386 1382 1378 1375 1372 1370 1368 1366 1364 1364 1364 1364 1364 1365 1366 1366 1367
1440 1444 1446 1447 1448 1448 1450 1451 1451 1450 1450 1449 1447 1445 1441 1437 1433 1429 1425 1421 1416 1412 1408 1404 1399 1395 1391 1387 1383 1379 1376 1374 1372 1370 1368 1367 1366 1366 1366 1367 1368 1369 1370 1372
1433 1436 1439 1438 1439 1441 1443 1445 1445 1445 1446 1445 1444 1442 1439 1435 1432 1428 1424 1420 1416 1412 1408 1404 1400 1396 1392 1388 1384 1381 1378 1376 1373 1372 1370 1369 1368 1368 1369 1369 1370 1372 1373 1375
1428 1429 1431 1431 1431 1432 1434 1436 1438 1439 1440 1441 1440 1439 1437 1434 1430 1427 1423 1420 1416 1412 1409 1405 1401 1397 1393 1389 1386 1382 1379 1377 1375 1373 1372 1371 1370 1370 1370 1371 1372 1374 1375 1377